Regional Weather Roundup
Issued by NWS

Home | Current Version | Previous Version | Text Only | Print | Product List | Glossary Off
Versions: 1 2 3 4 5 6 7 8 9 10 11 12 13 14 15 16 17 18 19 20 21 22 23 24 25 26 27 28 29 30 31 32 33 34 35 36 37 38 39 40 41 42 43 44 45 46 47 48 49 50

000
ASUS43 KMKX 310100
RWRWI

WISCONSIN REGIONAL WEATHER ROUNDUP
NATIONAL WEATHER SERVICE MILWAUKEE/SULLIVAN WI
800 PM CDT SUN AUG 30 2015

NOTE: "FAIR" INDICATES FEW OR NO CLOUDS BELOW 12,000 FEET WITH NO
SIGNIFICANT WEATHER AND/OR OBSTRUCTIONS TO VISIBILITY.

WIZ001-002-006>008-014>016-023>028-310200-
NORTHWEST WISCONSIN

CITY           SKY/WX    TMP DP  RH WIND       PRES   REMARKS
SUPERIOR ARPT  PTCLDY    74  64  73 SW6       29.86R
ASHLAND        CLEAR     69  64  84 S7        29.89R
HAYWARD        CLEAR     69  64  84 S6        29.93S
SIREN          PTCLDY    73  65  74 S6        29.91S
CUMBERLAND     CLEAR     68  64  88 S6        29.94S
RICE LAKE      CLEAR     69  64  83 SE6       29.95S
CHETEK         CLEAR    N/A N/A N/A CALM      29.95S
LADYSMITH      CLEAR     69  64  83 S6        29.97S
EAU CLAIRE     NOT AVBL
MENOMONIE      CLEAR     69  64  84 S5        29.96R
NEW RICHMOND   CLEAR     71  64  77 S8        29.94S
OSCEOLA        CLEAR     72  66  82 SE6       29.95R
$$

WIZ003>005-009-010-017-018-310200-
NORTH CENTRAL WISCONSIN

CITY           SKY/WX    TMP DP  RH WIND       PRES   REMARKS
MANITOWISH WTR CLEAR     69  64  84 SW3       29.95S
ARBOR VITAE    CLEAR     72  67  83 SW3       29.96S
WOODRUFF       CLEAR     72  67  83 SW3       29.96S
RHINELANDER    CLEAR     69  62  78 SW7       29.98S
EAGLE RIVER    CLEAR     70  61  71 SW5       29.96S
LAND O LAKES   CLEAR     71  63  75 SW3       29.96S
PHILLIPS       PTCLDY    70  64  83 SW5       29.96S
TOMAHAWK       CLEAR     66  63  89 CALM      29.97F
MEDFORD        CLEAR     67  64  88 S8        29.98F
MERRILL        CLEAR     70  64  80 SW3       29.98S
$$

WIZ029-030-035-036-043>047-310200-
CENTRAL WISCONSIN

CITY           SKY/WX    TMP DP  RH WIND       PRES   REMARKS
WAUSAU         CLEAR     70  63  78 SW6       29.97S
MOSINEE        NOT AVBL
MARSHFIELD     CLEAR     68  61  78 SW6       29.99R
STEVENS POINT  CLEAR     68  63  82 SW6       29.99S
WAUPACA        CLEAR     70  67  90 CALM      29.99R
WAUTOMA        NOT AVBL
WISC RAPIDS    CLEAR     68  63  84 S3        30.00S
CAMP DOUGLAS   NOT AVBL
$$

WIZ011>013-019>022-031-037>040-048>050-310200-
NORTHEAST WISCONSIN

CITY           SKY/WX    TMP DP  RH WIND       PRES   REMARKS
ANTIGO         CLEAR     66  63  90 S7        29.99S
SHAWANO        CLEAR     71  65  81 CALM      29.97S
OCONTO         CLEAR     68  66  93 SW5       29.96S
STURGEON BAY   CLEAR     64  59  82 S5        30.00S
GREEN BAY      CLEAR     67  64  90 S5        29.98S
MANITOWOC      NOT AVBL
APPLETON       CLEAR     66  63  88 S7        29.98S
CLINTONVILLE   CLEAR     68  63  83 S5        29.98S
OSHKOSH        CLEAR     64  62  93 S5        30.00R
$$

WIZ032>034-041-042-053>061-310200-
SOUTHWEST WISCONSIN

CITY           SKY/WX    TMP DP  RH WIND       PRES   REMARKS
LA CROSSE      CLEAR     70  64  81 S5        29.98R
SPARTA         CLEAR     68  62  81 CALM      29.99S
VIROQUA          N/A     67  65  94 S5        30.01F
BOSCOBEL       CLEAR     67  64  90 CALM      30.00S
PRAIRIE DU CHI CLEAR     71  63  75 SE3       29.99S
PLATTEVILLE    CLEAR     70  66  89 CALM      30.01F
$$

WIZ056-057-062-063-064-067-068-310200-
SOUTH CENTRAL WISCONSIN

CITY           SKY/WX    TMP DP  RH WIND       PRES   REMARKS
REEDSBURG      CLEAR     69  65  85 SW3       29.99F
BARABOO/DELLS  CLEAR     68  63  82 SW5       30.00S
LONE ROCK      NOT AVBL
MINERAL POINT  CLEAR     70  64  83 CALM      30.02F
MADISON        MOCLDY    69  64  84 SW3       30.00S
MIDDLETON      CLEAR     70  64  79 S3        30.02S
WATERTOWN      CLEAR     67  67 100 CALM      30.01S
MONROE         CLEAR     70  64  83 S3        30.02R
JANESVILLE     NOT AVBL
$$

WIZ051-052-058>065-066-070>072-310200-
SOUTHEAST WISCONSIN

CITY           SKY/WX    TMP DP  RH WIND       PRES   REMARKS
MILWAUKEE      CLEAR     65  62  90 S7        30.02R
WAUKESHA       CLEAR     64  63  94 CALM      30.03R
MILWAUKEE/TIMM CLEAR     66  61  82 CALM      30.02S
RACINE         CLEAR     65  62  90 S3        30.04R
BURLINGTON     CLEAR     64  62  93 SW3       30.02R
KENOSHA        CLEAR     65  62  90 SE6       30.03S
FOND DU LAC    CLEAR     66  63  90 S5        30.00S
SHEBOYGAN      CLEAR     63  61  93 S5        30.01R
WEST BEND      CLEAR     66  61  82 CALM      30.01S
JUNEAU         CLEAR     67  63  87 S5        30.02S
$$

LSZ147-162-310200-
LAKE SUPERIOR

STATION/POSITION TIME  TEMP    WIND        PRES    WAVE
                       AIR SEA DIR/SP/G            HT/PER
                 (UTC) (F)     (DEG/KT/KT) (MB)    (FT/S)
W MID LAKE BUOY  2350   62 56  220/  4/  4 1010.7F   1
DEVILS ISLAND    0000   71     210/  8/ 10 1010.6S
PORT WING        0000   77     190/  4/  6 1011.2S
SAXON HARBOR     0000   78     200/  7/ 11 1010.8
$$

LMZ867-665-643>646-310200-
LAKE MICHIGAN

STATION/POSITION TIME  TEMP    WIND        PRES    WAVE
                       AIR SEA DIR/SP/G            HT/PER
                 (UTC) (F)     (DEG/KT/KT) (MB)    (FT/S)
CHAMBERS ISLAND  0000   69     190/  7/ 15 1013.9F
S GREEN BAY BUOY 0000   67 64  210/  8/ 10 1016.1
N MID LAKE BUOY  2350   65 65  200/ 16/ 17 1013.9F   2/ 4
NORTHPORT PIER   0000   66     170/  4/  6 1013.9F
SHEBOYGAN LAKESH 0000   61     180/ 12/ 13 1016.3F
PORT WASHINGTON  0000   62     200/  4/  7 1016.9S
ATWATER BUOY     0000   56 51  170/  4/  6 1017.6F
MILWAUKEE LAKESH 0000   59     150/  9/  9   N/A
S MID LAKE BUOY  2350   67 68   60/  2/  2 1016.2F   1
KENOSHA   LAKESH 0000   65     170/  6/  7 1016.3S
$$

TC  - TEMPERATURE IN CELSIUS
VSB - VISIBILITY IN STATUTE MILES
WCI - WIND CHILL INDEX
HX  - HEAT INDEX



USA.gov is the U.S. government's official web portal to all federal, state and local government web resources and services.